Flag for Malaysia Weather past 2 weeks in Seremban, Malaysia

Now
75 °F

Partly cloudy.


Feels Like: 73 °F
Forecast: 74 / 88 °F
Wind: 2 mph from Northeast

Location: Malacca

Current Time: Apr 1, 2015 at 6:28:07 AM

Latest Report: Apr 1, 2015 at 5:00 AM


Visibility: N/A

Pressure: 29.83 "Hg

Humidity: 100%

Dew point: 75 °F

Location of SerembanLocation

Historic Weather in Seremban — Graph

°F

Seremban temperature yesterday

Maximum temperature yesterday: 91 °F (at 1:00 PM)
Minimum temperature yesterday: 77 °F (at 4:00 AM)
Average temperature yesterday: 81 °F

Past Weeks' High & Low Weather Summary

 TemperatureHumidityPressure
High95 °F (Mar 26, 3:00 PM)100% (Mar 30, 6:00 PM)29.98 "Hg (Mar 30, 6:00 PM)
Low77 °F (Mar 17, 4:00 AM)50% (Mar 26, 4:00 PM)29.71 "Hg (Mar 18, 6:00 PM)
Average83 °F81%29.85 "Hg
* Reported Mar 17 4:00 AM — Apr 1 4:00 AM, Seremban, Weather by CustomWeather, © 2015

Note: Actual official high and low records may vary slightly from our data, if they occured in-between our weather recording intervals... More about our weather records

Advertising

Seremban weather history for previous 24 hours

 ConditionsComfort  
Time TempWeatherWind HumidityBarometerVisibility
4:00 AM
Wed, Apr 1
77 °FPartly cloudy.1 mph94%29.80 "HgN/A
3:00 AM77 °FPartly cloudy.5 mph94%29.83 "HgN/A
2:00 AM77 °FPassing clouds.3 mph94%29.86 "HgN/A
1:00 AM77 °FPassing clouds.5 mph94%29.89 "HgN/A
12:00 AM77 °FPassing clouds.No wind100%29.92 "HgN/A
11:00 PM
Tue, Mar 31
77 °FPartly cloudy.5 mph100%29.89 "Hg6 mi
10:00 PM77 °FRain. Partly cloudy.6 mph100%29.89 "Hg4 mi
9:00 PM77 °FLight rain. Partly cloudy.2 mph100%29.89 "Hg4 mi
8:00 PM77 °FLight rain. Partly cloudy.3 mph100%29.86 "HgN/A
7:00 PM77 °FLight rain. Broken clouds.6 mph100%29.83 "Hg6 mi
6:00 PM77 °FThunderstorms. Broken clouds.5 mph100%29.80 "HgN/A
5:00 PM77 °FThunderstorms. Broken clouds.5 mph94%29.80 "Hg5 mi
4:00 PM86 °FThunderstorms. Broken clouds.7 mph75%29.77 "Hg3 mi
3:00 PM90 °FBroken clouds.8 mph71%29.77 "HgN/A
2:00 PM88 °FSprinkles. Broken clouds.7 mph75%29.80 "HgN/A
1:00 PM91 °FBroken clouds.5 mph63%29.86 "HgN/A
12:00 PM88 °FBroken clouds.5 mph70%29.89 "HgN/A
11:00 AM86 °FBroken clouds.7 mph79%29.89 "HgN/A
10:00 AM84 °FPartly sunny.6 mph84%29.89 "Hg6 mi
9:00 AM81 °FPartly sunny.3 mph89%29.89 "Hg4 mi
8:00 AM77 °FPartly sunny.No wind100%29.86 "Hg5 mi
7:00 AM77 °FPassing clouds.1 mph94%29.83 "Hg4 mi
6:00 AM77 °FPartly cloudy.1 mph94%29.83 "Hg6 mi
Weather by CustomWeather, © 2015

See weather overviewHow to use our weather pages